| time (UTC) | temp C | wind direction | speed KPH | gust KPH | rain 1hr cm | rain 24hr cm | rain mn cm | humidity % | barometer mb |
| 20260506114541 | 11 | 326 | 8.0 | 20.9 | 0.00 | 0.00 | 0.00 | 69 | 1011.7 |
| 20260506113040 | 11 | 335 | 14.5 | 25.7 | 0.00 | 0.00 | 0.00 | 68 | 1011.7 |
| 20260506111550 | 12 | 328 | 11.3 | 22.5 | 0.00 | 0.00 | 0.00 | 64 | 1011.5 |
| 20260506110056 | 12 | 325 | 9.7 | 17.7 | 0.00 | 0.00 | 0.00 | 63 | 1011.6 |
| 20260506104556 | 12 | 20 | 9.7 | 22.5 | 0.00 | 0.00 | 0.00 | 64 | 1011.6 |
| 20260506103045 | 11 | 325 | 12.9 | 25.7 | 0.00 | 0.00 | 0.00 | 66 | 1011.6 |
| 20260506101545 | 11 | 314 | 9.7 | 24.1 | 0.00 | 0.00 | 0.00 | 67 | 1011.6 |
| 20260506100053 | 11 | 323 | 6.4 | 24.1 | 0.00 | 0.00 | 0.00 | 69 | 1011.6 |
| 20260506094545 | 11 | 325 | 11.3 | 22.5 | 0.00 | 0.00 | 0.00 | 70 | 1011.7 |
| 20260506093046 | 10 | 314 | 12.9 | 20.9 | 0.00 | 0.00 | 0.00 | 70 | 1011.7 |
| 20260506091546 | 10 | 277 | 12.9 | 27.4 | 0.00 | 0.00 | 0.00 | 71 | 1011.6 |
| 20260506090045 | 10 | 306 | 16.1 | 27.4 | 0.00 | 0.00 | 0.00 | 73 | 1011.4 |
| 20260506084614 | 10 | 318 | 14.5 | 27.4 | 0.00 | 0.00 | 0.00 | 73 | 1011.2 |
| 20260506083045 | 10 | 297 | 12.9 | 20.9 | 0.00 | 0.00 | 0.00 | 76 | 1011.4 |
| 20260506081555 | 10 | 327 | 8.0 | 20.9 | 0.00 | 0.00 | 0.00 | 76 | 1011.5 |
| 20260506073043 | 8 | 319 | 12.9 | 20.9 | 0.00 | 0.00 | 0.00 | 80 | 1011.3 |
| 20260506071549 | 8 | 323 | 12.9 | 22.5 | 0.00 | 0.00 | 0.00 | 81 | 1011.3 |
| 20260506061546 | 7 | 307 | 9.7 | 22.5 | 0.00 | 0.00 | 0.00 | 83 | 1011.1 |
| 20260506044546 | 7 | 310 | 8.0 | 14.5 | 0.00 | 0.00 | 0.00 | 83 | 1011.2 |
| 20260506043049 | 7 | 338 | 4.8 | 12.9 | 0.00 | 0.00 | 0.00 | 83 | 1011.1 |
| 20260506041556 | 7 | 350 | 3.2 | 12.9 | 0.00 | 0.00 | 0.00 | 82 | 1011.0 |
| 20260506040050 | 7 | 296 | 3.2 | 14.5 | 0.00 | 0.00 | 0.00 | 82 | 1011.2 |
| 20260506034550 | 8 | 328 | 3.2 | 16.1 | 0.00 | 0.00 | 0.00 | 81 | 1011.4 |
| 20260506033048 | 8 | 320 | 8.0 | 16.1 | 0.00 | 0.00 | 0.00 | 81 | 1011.2 |
| 20260506031554 | 8 | 342 | 3.2 | 12.9 | 0.00 | 0.00 | 0.00 | 83 | 1011.3 |
| 20260506030041 | 8 | 339 | 4.8 | 11.3 | 0.00 | 0.00 | 0.00 | 83 | 1011.5 |
| 20260506024550 | 8 | 345 | 3.2 | 8.0 | 0.00 | 0.00 | 0.00 | 84 | 1011.5 |
| 20260506023100 | 8 | 329 | 0.0 | 9.7 | 0.00 | 0.00 | 0.00 | 83 | 1011.6 |
| 20260506021608 | 8 | 3 | 4.8 | 12.9 | 0.00 | 0.00 | 0.00 | 83 | 1011.6 |
| 20260506020052 | 9 | 314 | 1.6 | 11.3 | 0.00 | 0.00 | 0.00 | 83 | 1011.7 |
| 20260506014542 | 9 | 345 | 3.2 | 12.9 | 0.00 | 0.00 | 0.00 | 83 | 1011.7 |
| 20260506013055 | 9 | 335 | 4.8 | 12.9 | 0.00 | 0.00 | 0.00 | 83 | 1011.7 |
| 20260506011604 | 9 | 352 | 6.4 | 12.9 | 0.00 | 0.00 | 0.00 | 83 | 1011.8 |
| 20260506010043 | 9 | 346 | 3.2 | 17.7 | 0.00 | 0.00 | 0.00 | 82 | 1011.8 |
| 20260506004543 | 9 | 13 | 4.8 | 19.3 | 0.00 | 0.00 | 0.00 | 82 | 1011.9 |
| 20260506003041 | 9 | 4 | 6.4 | 19.3 | 0.00 | 0.00 | 0.00 | 82 | 1011.9 |
| 20260506001553 | 9 | 313 | 3.2 | 14.5 | 0.00 | 0.00 | 0.00 | 81 | 1012.0 |
| 20260506000048 | 10 | 353 | 1.6 | 14.5 | 0.00 | 0.00 | 0.00 | 80 | 1012.1 |
| 20260505234546 | 10 | 356 | 3.2 | 19.3 | 0.00 | 0.00 | 0.00 | 80 | 1012.0 |
| 20260505233044 | 10 | 350 | 4.8 | 16.1 | 0.00 | 0.00 | 0.00 | 79 | 1011.9 |
| 20260505231558 | 10 | 18 | 8.0 | 14.5 | 0.00 | 0.00 | 0.00 | 78 | 1011.9 |
| 20260505230041 | 10 | 359 | 4.8 | 20.9 | 0.00 | 0.00 | 0.00 | 78 | 1012.1 |
| 20260505224545 | 10 | 8 | 8.0 | 17.7 | 0.00 | 0.00 | 0.00 | 78 | 1012.0 |
| 20260505223048 | 10 | 333 | 8.0 | 19.3 | 0.00 | 0.00 | 0.00 | 78 | 1012.1 |
| 20260505221539 | 11 | 13 | 6.4 | 11.3 | 0.00 | 0.00 | 0.00 | 78 | 1012.0 |
| 20260505220045 | 10 | 34 | 6.4 | 12.9 | 0.00 | 0.00 | 0.00 | 78 | 1011.9 |
| 20260505214552 | 11 | 43 | 3.2 | 14.5 | 0.00 | 0.00 | 0.00 | 78 | 1011.9 |
| 20260505213041 | 11 | 21 | 3.2 | 11.3 | 0.00 | 0.00 | 0.00 | 77 | 1011.9 |
| 20260505211549 | 11 | 56 | 8.0 | 19.3 | 0.00 | 0.00 | 0.00 | 77 | 1011.9 |
| 20260505210045 | 11 | 42 | 8.0 | 19.3 | 0.00 | 0.00 | 0.00 | 77 | 1011.8 |
| 20260505204548 | 11 | 33 | 8.0 | 14.5 | 0.00 | 0.00 | 0.00 | 79 | 1012.0 |
| 20260505203104 | 11 | 57 | 8.0 | 19.3 | 0.00 | 0.00 | 0.00 | 78 | 1011.8 |
| 20260505201545 | 11 | 37 | 8.0 | 17.7 | 0.00 | 0.00 | 0.00 | 78 | 1011.8 |
| 20260505200047 | 11 | 50 | 9.7 | 20.9 | 0.00 | 0.00 | 0.00 | 78 | 1011.6 |
| 20260505194555 | 11 | 41 | 8.0 | 20.9 | 0.00 | 0.00 | 0.00 | 78 | 1011.5 |
| 20260505193044 | 11 | 52 | 11.3 | 17.7 | 0.00 | 0.00 | 0.00 | 78 | 1011.4 |
| 20260505191542 | 11 | 68 | 16.1 | 22.5 | 0.00 | 0.00 | 0.00 | 77 | 1011.3 |
| 20260505190040 | 11 | 78 | 16.1 | 22.5 | 0.00 | 0.00 | 0.00 | 76 | 1011.1 |
| 20260505184549 | 11 | 64 | 16.1 | 24.1 | 0.00 | 0.00 | 0.00 | 72 | 1011.1 |
| 20260505183046 | 12 | 56 | 14.5 | 25.7 | 0.00 | 0.00 | 0.00 | 68 | 1010.9 |
| 20260505181550 | 12 | 56 | 14.5 | 22.5 | 0.00 | 0.00 | 0.00 | 67 | 1010.9 |
| 20260505180051 | 12 | 60 | 12.9 | 20.9 | 0.00 | 0.00 | 0.00 | 65 | 1010.9 |
| 20260505174547 | 12 | 26 | 11.3 | 20.9 | 0.00 | 0.00 | 0.00 | 69 | 1010.9 |
| 20260505173055 | 12 | 32 | 12.9 | 19.3 | 0.00 | 0.00 | 0.00 | 69 | 1010.8 |
| 20260505171547 | 12 | 77 | 9.7 | 24.1 | 0.00 | 0.00 | 0.00 | 69 | 1011.0 |
| 20260505170104 | 12 | 68 | 11.3 | 14.5 | 0.00 | 0.00 | 0.00 | 68 | 1011.0 |
| 20260505164547 | 12 | 82 | 14.5 | 22.5 | 0.00 | 0.00 | 0.00 | 70 | 1011.0 |
| 20260505163051 | 12 | 84 | 14.5 | 25.7 | 0.00 | 0.00 | 0.00 | 67 | 1011.0 |
| 20260505161610 | 12 | 70 | 19.3 | 24.1 | 0.00 | 0.00 | 0.00 | 68 | 1011.0 |
| 20260505153056 | 12 | 69 | 14.5 | 22.5 | 0.00 | 0.00 | 0.00 | 70 | 1011.1 |
| 20260505151558 | 12 | 72 | 17.7 | 25.7 | 0.00 | 0.00 | 0.00 | 69 | 1011.2 |
| 20260505124549 | 13 | 46 | 20.9 | 30.6 | 0.00 | 0.00 | 0.00 | 57 | 1011.5 |
| 20260505123044 | 13 | 77 | 19.3 | 29.0 | 0.00 | 0.00 | 0.00 | 59 | 1011.6 |
| 20260505121548 | 13 | 58 | 20.9 | 32.2 | 0.00 | 0.00 | 0.00 | 56 | 1011.5 |
| 20260505120043 | 13 | 85 | 24.1 | 30.6 | 0.00 | 0.00 | 0.00 | 58 | 1011.6 |